loading
|

STARLINK-32078, 60338

Orbit data source: Space-Track

STARLINK-32078, 60338 is a payload satellite owned by SpaceX/Seattle (US) in LEO that was launched on Fri, 02 Aug 2024 UTC via an FALCON 9 launch vehicle from the Air Force Eastern Test Range (AFETR). Payloads include a variety of satellites, spacecraft, and rockets equipped with specific instruments for various scientific and technological missions. These include communications satellites like Starlink; space stations such as the ISS; scientific satellites like the Hubble; Earth observation satellites from companies like Planet Labs, Umbra, and HawkEye 360; GPS; miniature CubeSats for education and research; and military/defense satellites.

Loading next visibility...
Loading greatness...
STARLINK-32078 details
Identifier
60338, 2024-136K
Orbit
LEO
Last TLE update6 hours ago
Origin
Flag of USSpaceX/Seattle (US)
ManufacturerSpaceX/Seattle
Mission statusOperational
MissionUnknown
Bus & MotorSTARLINK V2M, Unknown motor
Mass750 kg wet, ~700 kg dry
Launch date (UTC)
2024-08-02 (2 months ago)
Launch vehicle
FALCON 9
Launch site
Air Force Eastern Test Range (AFETR)
Object type
Payload
Rocket body
Debris
Radar Cross SectionLarge (>1 m²)

Expand to show TLE details & history

TLE from 6 hours ago
0 STARLINK-32078
1 60338U 24136K   24261.72935866  .00003220  00000-0  90399-4 0  9998
2 60338  53.1626  54.9137 0001096  65.0501 295.0618 15.39634203  8462
Epoch: 2024-09-17T17:30Z
Definitive object data (Epoch: 2024-09-17T17:30:16.588Z)
Latitude0.00002°
Longitude155.20476°
Altitude447.777 km
Speed7.645 km/s
True Right ascension03h 39m 39s
True Declination0° 00' 00"
Sunlit
Object was in full shadow at TLE epoch
Predictive object data (real-time)
Latitude-52.33759°
Longitude79.21303°
Altitude465.973 km
Speed7.633 km/s
Apparent Right ascension01h 40m 03s
Apparent Declination-54° 27' 09"
Sunlit
Object is in full shadow
Predictive observer data (real-time)
Local Sidereal Time16:12:14
Azimuth132.669° SE
Elevation-60.839°
Doppler factor1
Orbital elements
Apogee448.195 km
Perigee446.699 km
Semi-major axis6,825.584 km
Eccentricity0.0001096
Inclination53.1626°
RAAN54.9137°
Arg. of periapsis65.0501°
True anomaly295.05042°
Mean anomaly295.0618°
Eccentric anomaly295.05611°
Mean motion3.84887 °/min
BSTAR0.000090399
Period93.53 mins
No data available

STARLINK-32078 Visibility forecast

Observer location: 39.9160978°, -105.1181434

STARLINK-32078 is not visible in the next 10 days
Span
Click to sort rows by Start time (UTC) header in descending order
Start Az.
Max El. time (UTC)
Max El. Az.
Max El.
End time (UTC)
End Az.